Time,TemperatureF,DewpointF,PressureIn,WindDirection,WindDirectionDegrees,WindSpeedMPH,WindSpeedGustMPH,Humidity,HourlyPrecipIn,Conditions,Clouds,dailyrainin,SoftwareType,DateUTC
2013-06-24 00:01:00,69.9,68.1,30.13,East,91,0.0,0.0,94,0.00,,,0.02,Wunderground v.1.15,2013-06-24 04:01:00,
2013-06-24 00:06:00,69.9,67.8,30.13,East,91,0.0,0.0,93,0.00,,,0.02,Wunderground v.1.15,2013-06-24 04:06:00,
2013-06-24 00:11:00,69.8,67.7,30.13,East,91,0.0,0.0,93,0.00,,,0.02,Wunderground v.1.15,2013-06-24 04:11:00,
2013-06-24 00:16:00,69.8,67.7,30.14,East,91,0.0,0.0,93,0.00,,,0.02,Wunderground v.1.15,2013-06-24 04:16:00,
2013-06-24 00:21:00,69.9,67.8,30.14,East,91,0.0,0.0,93,0.00,,,0.02,Wunderground v.1.15,2013-06-24 04:21:00,
2013-06-24 00:26:00,69.9,67.5,30.14,East,91,0.0,0.0,92,0.00,,,0.02,Wunderground v.1.15,2013-06-24 04:26:00,
2013-06-24 00:31:00,69.8,67.4,30.13,East,91,0.0,0.0,92,0.00,,,0.02,Wunderground v.1.15,2013-06-24 04:31:00,
2013-06-24 00:36:00,69.8,67.4,30.13,East,91,0.0,0.0,92,0.00,,,0.02,Wunderground v.1.15,2013-06-24 04:36:00,
2013-06-24 00:41:00,69.8,67.4,30.13,East,91,0.0,0.0,92,0.00,,,0.02,Wunderground v.1.15,2013-06-24 04:41:00,
2013-06-24 00:46:00,69.6,67.2,30.13,East,91,0.0,0.0,92,0.00,,,0.02,Wunderground v.1.15,2013-06-24 04:46:00,
2013-06-24 00:51:00,69.6,67.2,30.13,East,91,0.0,0.0,92,0.00,,,0.02,Wunderground v.1.15,2013-06-24 04:51:00,
2013-06-24 00:56:00,69.6,67.2,30.13,East,91,0.0,0.0,92,0.00,,,0.02,Wunderground v.1.15,2013-06-24 04:56:00,
2013-06-24 01:02:00,69.4,67.0,30.13,East,91,0.0,0.0,92,0.00,,,0.02,Wunderground v.1.15,2013-06-24 05:02:00,
2013-06-24 01:07:00,69.4,67.3,30.13,East,91,0.0,0.0,93,0.00,,,0.02,Wunderground v.1.15,2013-06-24 05:07:00,
2013-06-24 01:12:00,69.4,67.3,30.13,East,91,0.0,0.0,93,0.00,,,0.02,Wunderground v.1.15,2013-06-24 05:12:00,
2013-06-24 01:17:00,69.3,66.9,30.13,East,91,0.0,0.0,92,0.00,,,0.02,Wunderground v.1.15,2013-06-24 05:17:00,
2013-06-24 01:22:00,69.3,66.9,30.13,East,91,0.0,0.0,92,0.00,,,0.02,Wunderground v.1.15,2013-06-24 05:22:00,
2013-06-24 01:27:00,69.3,66.9,30.13,East,91,0.0,0.0,92,0.00,,,0.02,Wunderground v.1.15,2013-06-24 05:27:00,
2013-06-24 01:32:00,69.3,66.9,30.13,East,91,0.0,0.0,92,0.00,,,0.00,Wunderground v.1.15,2013-06-24 05:32:00,
2013-06-24 01:37:00,69.4,67.0,30.13,East,91,0.0,0.0,92,0.00,,,0.00,Wunderground v.1.15,2013-06-24 05:37:00,
2013-06-24 01:42:00,69.6,67.2,30.12,East,91,0.0,0.0,92,0.00,,,0.00,Wunderground v.1.15,2013-06-24 05:42:00,
2013-06-24 01:47:00,69.6,66.9,30.12,East,91,0.0,0.0,91,0.00,,,0.00,Wunderground v.1.15,2013-06-24 05:47:00,
2013-06-24 01:52:00,69.6,66.9,30.12,East,91,0.0,0.0,91,0.00,,,0.00,Wunderground v.1.15,2013-06-24 05:52:00,
2013-06-24 01:57:00,69.6,66.9,30.12,East,91,0.0,0.0,91,0.00,,,0.00,Wunderground v.1.15,2013-06-24 05:57:00,
2013-06-24 02:02:00,69.6,66.5,30.12,East,91,0.0,0.0,90,0.00,,,0.00,Wunderground v.1.15,2013-06-24 06:02:00,
2013-06-24 02:07:00,69.6,66.2,30.12,East,91,0.0,0.0,89,0.00,,,0.00,Wunderground v.1.15,2013-06-24 06:07:00,
2013-06-24 02:12:00,69.4,66.0,30.12,East,91,0.0,0.0,89,0.00,,,0.00,Wunderground v.1.15,2013-06-24 06:12:00,
2013-06-24 02:17:00,69.4,66.0,30.12,East,91,0.0,0.0,89,0.00,,,0.00,Wunderground v.1.15,2013-06-24 06:17:00,
2013-06-24 02:22:00,69.4,66.0,30.12,East,91,0.0,0.0,89,0.00,,,0.00,Wunderground v.1.15,2013-06-24 06:22:00,
2013-06-24 02:28:00,69.4,65.7,30.11,East,91,0.0,0.0,88,0.00,,,0.00,Wunderground v.1.15,2013-06-24 06:28:00,
2013-06-24 02:33:00,69.4,65.7,30.11,East,91,0.0,0.0,88,0.00,,,0.00,Wunderground v.1.15,2013-06-24 06:33:00,
2013-06-24 02:38:00,69.4,65.7,30.11,East,91,0.0,0.0,88,0.00,,,0.00,Wunderground v.1.15,2013-06-24 06:38:00,
2013-06-24 02:43:00,69.6,65.9,30.11,East,91,0.0,0.0,88,0.00,,,0.00,Wunderground v.1.15,2013-06-24 06:43:00,
2013-06-24 02:49:00,69.6,65.9,30.11,East,91,0.0,0.0,88,0.00,,,0.00,Wunderground v.1.15,2013-06-24 06:49:00,
2013-06-24 02:54:00,69.4,66.0,30.11,East,91,0.0,0.0,89,0.00,,,0.00,Wunderground v.1.15,2013-06-24 06:54:00,
2013-06-24 02:59:00,69.1,66.0,30.11,East,91,0.0,0.0,90,0.00,,,0.00,Wunderground v.1.15,2013-06-24 06:59:00,
2013-06-24 03:04:00,68.9,66.2,30.11,East,91,0.0,0.0,91,0.00,,,0.00,Wunderground v.1.15,2013-06-24 07:04:00,
2013-06-24 03:09:00,68.8,66.4,30.11,East,91,0.0,0.0,92,0.00,,,0.00,Wunderground v.1.15,2013-06-24 07:09:00,
2013-06-24 03:15:00,68.4,66.0,30.11,East,91,0.0,0.0,92,0.00,,,0.00,Wunderground v.1.15,2013-06-24 07:15:00,
2013-06-24 03:20:00,68.4,66.0,30.11,East,91,0.0,0.0,92,0.00,,,0.00,Wunderground v.1.15,2013-06-24 07:20:00,
2013-06-24 03:25:00,68.4,66.0,30.11,East,91,0.0,0.0,92,0.00,,,0.00,Wunderground v.1.15,2013-06-24 07:25:00,
2013-06-24 03:30:00,68.4,66.0,30.11,East,91,0.0,0.0,92,0.00,,,0.00,Wunderground v.1.15,2013-06-24 07:30:00,
2013-06-24 03:35:00,68.3,66.2,30.11,East,91,0.0,0.0,93,0.00,,,0.00,Wunderground v.1.15,2013-06-24 07:35:00,
2013-06-24 03:40:00,68.3,66.2,30.11,East,91,0.0,0.0,93,0.00,,,0.00,Wunderground v.1.15,2013-06-24 07:40:00,
2013-06-24 03:45:00,68.1,66.0,30.11,East,91,0.0,0.0,93,0.00,,,0.00,Wunderground v.1.15,2013-06-24 07:45:00,
2013-06-24 03:50:00,68.1,66.3,30.11,East,91,0.0,0.0,94,0.00,,,0.00,Wunderground v.1.15,2013-06-24 07:50:00,
2013-06-24 03:55:00,68.1,66.3,30.11,East,91,0.0,0.0,94,0.00,,,0.00,Wunderground v.1.15,2013-06-24 07:55:00,
2013-06-24 04:00:00,67.9,66.1,30.11,East,91,0.0,0.0,94,0.00,,,0.00,Wunderground v.1.15,2013-06-24 08:00:00,
2013-06-24 04:06:00,67.9,66.1,30.11,East,91,0.0,0.0,94,0.00,,,0.00,Wunderground v.1.15,2013-06-24 08:06:00,
2013-06-24 04:11:00,67.9,66.4,30.11,East,91,0.0,0.0,95,0.00,,,0.00,Wunderground v.1.15,2013-06-24 08:11:00,
2013-06-24 04:16:00,67.8,66.3,30.11,East,91,0.0,0.0,95,0.00,,,0.00,Wunderground v.1.15,2013-06-24 08:16:00,
2013-06-24 04:21:00,67.6,66.1,30.11,East,91,0.0,0.0,95,0.00,,,0.00,Wunderground v.1.15,2013-06-24 08:21:00,
2013-06-24 04:27:00,67.6,66.1,30.11,East,91,0.0,0.0,95,0.00,,,0.00,Wunderground v.1.15,2013-06-24 08:27:00,
2013-06-24 04:32:00,67.4,65.9,30.11,East,91,0.0,0.0,95,0.00,,,0.00,Wunderground v.1.15,2013-06-24 08:32:00,
2013-06-24 04:37:00,67.4,65.9,30.11,East,91,0.0,0.0,95,0.00,,,0.00,Wunderground v.1.15,2013-06-24 08:37:00,
2013-06-24 04:42:00,67.4,66.2,30.11,East,91,0.0,0.0,96,0.00,,,0.00,Wunderground v.1.15,2013-06-24 08:42:00,
2013-06-24 04:47:00,67.4,66.2,30.11,East,91,0.0,0.0,96,0.00,,,0.00,Wunderground v.1.15,2013-06-24 08:47:00,
2013-06-24 04:52:00,67.4,66.2,30.11,East,91,0.0,0.0,96,0.00,,,0.00,Wunderground v.1.15,2013-06-24 08:52:00,
2013-06-24 04:57:00,67.4,66.2,30.12,East,91,0.0,0.0,96,0.00,,,0.00,Wunderground v.1.15,2013-06-24 08:57:00,
2013-06-24 05:02:00,67.6,66.4,30.12,East,91,0.0,0.0,96,0.00,,,0.00,Wunderground v.1.15,2013-06-24 09:02:00,
2013-06-24 05:08:00,67.6,66.4,30.12,East,91,0.0,0.0,96,0.00,,,0.00,Wunderground v.1.15,2013-06-24 09:08:00,
2013-06-24 05:13:00,67.6,66.4,30.12,East,91,0.0,0.0,96,0.00,,,0.00,Wunderground v.1.15,2013-06-24 09:13:00,
2013-06-24 05:18:00,67.6,66.4,30.12,East,91,0.0,0.0,96,0.00,,,0.00,Wunderground v.1.15,2013-06-24 09:18:00,
2013-06-24 05:23:00,67.6,66.4,30.12,East,91,0.0,0.0,96,0.00,,,0.00,Wunderground v.1.15,2013-06-24 09:23:00,
2013-06-24 05:28:00,67.6,66.4,30.13,East,91,0.0,0.0,96,0.00,,,0.00,Wunderground v.1.15,2013-06-24 09:28:00,
2013-06-24 05:33:00,67.4,65.9,30.13,East,91,0.0,0.0,95,0.00,,,0.00,Wunderground v.1.15,2013-06-24 09:33:00,
2013-06-24 05:38:00,67.3,66.1,30.13,East,91,0.0,0.0,96,0.00,,,0.00,Wunderground v.1.15,2013-06-24 09:38:00,
2013-06-24 05:43:00,67.3,65.8,30.13,East,91,0.0,0.0,95,0.00,,,0.00,Wunderground v.1.15,2013-06-24 09:43:00,
2013-06-24 05:48:00,67.1,65.6,30.13,East,91,0.0,0.0,95,0.00,,,0.00,Wunderground v.1.15,2013-06-24 09:48:00,
2013-06-24 05:53:00,66.9,65.4,30.13,East,91,0.0,0.0,95,0.00,,,0.00,Wunderground v.1.15,2013-06-24 09:53:00,
2013-06-24 05:59:00,66.9,65.4,30.13,East,91,0.0,1.0,95,0.00,,,0.00,Wunderground v.1.15,2013-06-24 09:59:00,
2013-06-24 06:04:00,66.8,65.6,30.13,East,91,0.0,1.0,96,0.00,,,0.00,Wunderground v.1.15,2013-06-24 10:04:00,
2013-06-24 06:09:00,66.8,65.6,30.13,East,91,0.0,1.0,96,0.00,,,0.00,Wunderground v.1.15,2013-06-24 10:09:00,
2013-06-24 06:15:00,66.9,65.7,30.13,East,91,0.0,0.0,96,0.00,,,0.00,Wunderground v.1.15,2013-06-24 10:15:00,
2013-06-24 06:20:00,66.8,65.6,30.13,East,91,0.0,0.0,96,0.00,,,0.00,Wunderground v.1.15,2013-06-24 10:20:00,
2013-06-24 06:25:00,66.8,65.6,30.13,East,91,0.0,0.0,96,0.00,,,0.00,Wunderground v.1.15,2013-06-24 10:25:00,
2013-06-24 06:30:00,66.9,65.7,30.13,East,91,0.0,0.0,96,0.00,,,0.00,Wunderground v.1.15,2013-06-24 10:30:00,
2013-06-24 06:36:00,66.9,65.7,30.13,East,91,0.0,0.0,96,0.00,,,0.00,Wunderground v.1.15,2013-06-24 10:36:00,
2013-06-24 06:41:00,66.9,65.7,30.13,East,91,0.0,0.0,96,0.00,,,0.00,Wunderground v.1.15,2013-06-24 10:41:00,
2013-06-24 06:46:00,67.1,65.9,30.14,East,91,0.0,0.0,96,0.00,,,0.00,Wunderground v.1.15,2013-06-24 10:46:00,
2013-06-24 06:51:00,66.9,65.7,30.14,East,91,0.0,0.0,96,0.00,,,0.00,Wunderground v.1.15,2013-06-24 10:51:00,
2013-06-24 06:56:00,66.9,65.7,30.14,East,91,0.0,0.0,96,0.00,,,0.00,Wunderground v.1.15,2013-06-24 10:56:00,
2013-06-24 07:02:00,66.8,65.6,30.15,East,91,0.0,0.0,96,0.00,,,0.00,Wunderground v.1.15,2013-06-24 11:02:00,
2013-06-24 07:07:00,66.8,65.6,30.15,East,91,0.0,0.0,96,0.00,,,0.00,Wunderground v.1.15,2013-06-24 11:07:00,
2013-06-24 07:12:00,66.9,65.7,30.15,East,91,0.0,0.0,96,0.00,,,0.00,Wunderground v.1.15,2013-06-24 11:12:00,
2013-06-24 07:17:00,66.9,66.0,30.15,East,91,0.0,0.0,97,0.00,,,0.00,Wunderground v.1.15,2013-06-24 11:17:00,
2013-06-24 07:23:00,67.1,65.9,30.15,East,91,0.0,0.0,96,0.00,,,0.00,Wunderground v.1.15,2013-06-24 11:23:00,
2013-06-24 07:28:00,67.3,66.1,30.16,East,91,0.0,0.0,96,0.00,,,0.00,Wunderground v.1.15,2013-06-24 11:28:00,
2013-06-24 07:33:00,67.1,65.9,30.16,East,91,0.0,0.0,96,0.00,,,0.00,Wunderground v.1.15,2013-06-24 11:33:00,
2013-06-24 07:38:00,67.3,66.1,30.16,East,91,0.0,0.0,96,0.00,,,0.00,Wunderground v.1.15,2013-06-24 11:38:00,
2013-06-24 07:43:00,67.4,66.2,30.17,East,91,0.0,0.0,96,0.00,,,0.00,Wunderground v.1.15,2013-06-24 11:43:00,
2013-06-24 07:48:00,67.6,66.4,30.17,East,91,0.0,0.0,96,0.00,,,0.00,Wunderground v.1.15,2013-06-24 11:48:00,
2013-06-24 07:53:00,67.8,66.6,30.17,East,91,0.0,0.0,96,0.00,,,0.00,Wunderground v.1.15,2013-06-24 11:53:00,
2013-06-24 07:59:00,68.1,66.9,30.17,East,91,0.0,0.0,96,0.00,,,0.00,Wunderground v.1.15,2013-06-24 11:59:00,
2013-06-24 08:04:00,68.6,67.7,30.17,East,91,0.0,0.0,97,0.00,,,0.00,Wunderground v.1.15,2013-06-24 12:04:00,
2013-06-24 08:10:00,69.1,68.2,30.17,NE,55,0.0,0.0,97,0.00,,,0.00,Wunderground v.1.15,2013-06-24 12:10:00,
2013-06-24 08:15:00,69.3,68.1,30.16,NE,55,0.0,1.0,96,0.00,,,0.00,Wunderground v.1.15,2013-06-24 12:15:00,
2013-06-24 08:20:00,69.3,68.1,30.16,NE,55,0.0,0.0,96,0.00,,,0.00,Wunderground v.1.15,2013-06-24 12:20:00,
2013-06-24 08:25:00,69.4,68.2,30.16,NE,55,1.0,1.0,96,0.00,,,0.00,Wunderground v.1.15,2013-06-24 12:25:00,
2013-06-24 08:30:00,69.6,68.7,30.17,NE,55,0.0,0.0,97,0.00,,,0.00,Wunderground v.1.15,2013-06-24 12:30:00,
2013-06-24 08:36:00,69.6,68.4,30.17,NE,55,0.0,2.0,96,0.00,,,0.00,Wunderground v.1.15,2013-06-24 12:36:00,
2013-06-24 08:41:00,69.6,68.7,30.17,NE,55,0.0,0.0,97,0.00,,,0.00,Wunderground v.1.15,2013-06-24 12:41:00,
2013-06-24 08:46:00,69.8,68.6,30.18,NE,55,0.0,0.0,96,0.00,,,0.00,Wunderground v.1.15,2013-06-24 12:46:00,
2013-06-24 08:51:00,70.1,69.2,30.18,NE,55,0.0,0.0,97,0.00,,,0.00,Wunderground v.1.15,2013-06-24 12:51:00,
2013-06-24 08:56:00,70.1,68.9,30.18,NE,55,1.0,3.0,96,0.00,,,0.00,Wunderground v.1.15,2013-06-24 12:56:00,
2013-06-24 09:01:00,70.3,69.1,30.18,NE,55,0.0,0.0,96,0.00,,,0.00,Wunderground v.1.15,2013-06-24 13:01:00,
2013-06-24 09:07:00,70.8,69.6,30.18,NE,55,0.0,0.0,96,0.00,,,0.00,Wunderground v.1.15,2013-06-24 13:07:00,
2013-06-24 09:12:00,70.8,69.6,30.18,NE,55,0.0,0.0,96,0.00,,,0.00,Wunderground v.1.15,2013-06-24 13:12:00,
2013-06-24 09:17:00,70.8,69.3,30.18,NE,55,0.0,0.0,95,0.00,,,0.00,Wunderground v.1.15,2013-06-24 13:17:00,
2013-06-24 09:22:00,70.9,69.4,30.18,NE,55,0.0,0.0,95,0.00,,,0.00,Wunderground v.1.15,2013-06-24 13:22:00,
2013-06-24 09:27:00,71.3,69.8,30.19,NE,55,0.0,0.0,95,0.00,,,0.00,Wunderground v.1.15,2013-06-24 13:27:00,
2013-06-24 09:32:00,71.1,69.0,30.19,ENE,60,0.0,3.0,93,0.00,,,0.00,Wunderground v.1.15,2013-06-24 13:32:00,
2013-06-24 09:37:00,71.1,69.0,30.19,ENE,60,0.0,3.0,93,0.00,,,0.00,Wunderground v.1.15,2013-06-24 13:37:00,
2013-06-24 09:42:00,71.1,69.0,30.19,East,79,0.0,4.0,93,0.00,,,0.00,Wunderground v.1.15,2013-06-24 13:42:00,
2013-06-24 09:48:00,71.3,69.2,30.19,East,84,2.0,4.0,93,0.00,,,0.00,Wunderground v.1.15,2013-06-24 13:48:00,
2013-06-24 09:53:00,71.3,69.2,30.19,East,89,1.0,7.0,93,0.00,,,0.00,Wunderground v.1.15,2013-06-24 13:53:00,
2013-06-24 09:59:00,71.5,69.4,30.19,ESE,103,0.0,7.0,93,0.00,,,0.00,Wunderground v.1.15,2013-06-24 13:59:00,
2013-06-24 10:04:00,71.5,69.7,30.19,ESE,107,0.0,6.0,94,0.00,,,0.00,Wunderground v.1.15,2013-06-24 14:04:00,
2013-06-24 10:09:00,71.6,69.5,30.19,ESE,107,0.0,6.0,93,0.00,,,0.00,Wunderground v.1.15,2013-06-24 14:09:00,
2013-06-24 10:14:00,71.5,69.1,30.19,ESE,103,0.0,4.0,92,0.00,,,0.00,Wunderground v.1.15,2013-06-24 14:14:00,
2013-06-24 10:19:00,71.8,69.7,30.19,ESE,103,2.0,4.0,93,0.00,,,0.00,Wunderground v.1.15,2013-06-24 14:19:00,
2013-06-24 10:24:00,72.1,69.6,30.19,ESE,103,0.0,5.0,92,0.00,,,0.00,Wunderground v.1.15,2013-06-24 14:24:00,
2013-06-24 10:29:00,71.8,69.3,30.19,ESE,103,0.0,5.0,92,0.00,,,0.00,Wunderground v.1.15,2013-06-24 14:29:00,
2013-06-24 10:35:00,71.8,69.3,30.19,ESE,103,0.0,5.0,92,0.00,,,0.00,Wunderground v.1.15,2013-06-24 14:35:00,
2013-06-24 10:40:00,71.8,69.3,30.19,East,83,4.0,6.0,92,0.00,,,0.00,Wunderground v.1.15,2013-06-24 14:40:00,
2013-06-24 10:45:00,72.0,69.5,30.19,East,91,1.0,6.0,92,0.00,,,0.00,Wunderground v.1.15,2013-06-24 14:45:00,
2013-06-24 10:50:00,72.3,69.8,30.19,East,91,0.0,1.0,92,0.00,,,0.00,Wunderground v.1.15,2013-06-24 14:50:00,
2013-06-24 10:56:00,72.8,70.0,30.19,East,91,0.0,1.0,91,0.00,,,0.00,Wunderground v.1.15,2013-06-24 14:56:00,
2013-06-24 11:01:00,73.0,69.6,30.20,East,91,0.0,0.0,89,0.00,,,0.00,Wunderground v.1.15,2013-06-24 15:01:00,
2013-06-24 11:06:00,73.2,69.4,30.20,East,91,0.0,1.0,88,0.00,,,0.00,Wunderground v.1.15,2013-06-24 15:06:00,
2013-06-24 11:12:00,73.7,69.6,30.19,East,91,0.0,3.0,87,0.00,,,0.00,Wunderground v.1.15,2013-06-24 15:12:00,
2013-06-24 11:17:00,73.7,69.9,30.19,East,91,0.0,3.0,88,0.00,,,0.00,Wunderground v.1.15,2013-06-24 15:17:00,
2013-06-24 11:22:00,73.9,69.4,30.19,East,91,0.0,0.0,86,0.00,,,0.00,Wunderground v.1.15,2013-06-24 15:22:00,
2013-06-24 11:27:00,73.9,69.4,30.19,East,91,0.0,2.0,86,0.00,,,0.00,Wunderground v.1.15,2013-06-24 15:27:00,
2013-06-24 11:33:00,74.0,70.2,30.19,East,95,4.0,5.0,88,0.00,,,0.00,Wunderground v.1.15,2013-06-24 15:33:00,
2013-06-24 11:38:00,74.6,70.1,30.19,East,100,2.0,7.0,86,0.00,,,0.00,Wunderground v.1.15,2013-06-24 15:38:00,
2013-06-24 11:44:00,75.1,69.6,30.19,ESE,106,3.0,6.0,83,0.00,,,0.00,Wunderground v.1.15,2013-06-24 15:44:00,
2013-06-24 11:49:00,75.6,69.7,30.19,East,97,3.0,7.0,82,0.00,,,0.00,Wunderground v.1.15,2013-06-24 15:49:00,
2013-06-24 11:54:00,75.6,69.4,30.19,East,97,0.0,3.0,81,0.00,,,0.00,Wunderground v.1.15,2013-06-24 15:54:00,
2013-06-24 11:59:00,76.0,68.6,30.19,East,97,0.0,4.0,78,0.00,,,0.00,Wunderground v.1.15,2013-06-24 15:59:00,
2013-06-24 12:04:00,77.0,70.0,30.19,East,101,0.0,6.0,79,0.00,,,0.00,Wunderground v.1.15,2013-06-24 16:04:00,
2013-06-24 12:10:00,77.2,69.8,30.19,ESE,102,0.0,1.0,78,0.00,,,0.00,Wunderground v.1.15,2013-06-24 16:10:00,
2013-06-24 12:15:00,77.0,68.9,30.18,ESE,105,0.0,7.0,76,0.00,,,0.00,Wunderground v.1.15,2013-06-24 16:15:00,
2013-06-24 12:20:00,77.4,70.0,30.18,ESE,105,0.0,2.0,78,0.00,,,0.00,Wunderground v.1.15,2013-06-24 16:20:00,
2013-06-24 12:25:00,76.7,68.9,30.18,ESE,105,3.0,6.0,77,0.00,,,0.00,Wunderground v.1.15,2013-06-24 16:25:00,
2013-06-24 12:31:00,77.7,69.9,30.18,East,98,3.0,5.0,77,0.00,,,0.00,Wunderground v.1.15,2013-06-24 16:31:00,
2013-06-24 12:36:00,76.7,68.6,30.18,ESE,106,3.0,9.0,76,0.00,,,0.00,Wunderground v.1.15,2013-06-24 16:36:00,
2013-06-24 12:41:00,76.8,69.0,30.18,East,95,5.0,8.0,77,0.00,,,0.00,Wunderground v.1.15,2013-06-24 16:41:00,
2013-06-24 12:46:00,77.6,70.2,30.17,ESE,104,2.0,10.0,78,0.00,,,0.00,Wunderground v.1.15,2013-06-24 16:46:00,
2013-06-24 12:51:00,78.8,70.6,30.17,ESE,108,0.0,4.0,76,0.00,,,0.00,Wunderground v.1.15,2013-06-24 16:51:00,
2013-06-24 12:56:00,79.4,70.8,30.17,ESE,116,3.0,9.0,75,0.00,,,0.00,Wunderground v.1.15,2013-06-24 16:56:00,
2013-06-24 13:01:00,78.8,69.4,30.16,ESE,114,4.0,6.0,73,0.00,,,0.00,Wunderground v.1.15,2013-06-24 17:01:00,
2013-06-24 13:06:00,78.8,69.8,30.16,East,101,5.0,6.0,74,0.00,,,0.00,Wunderground v.1.15,2013-06-24 17:06:00,
2013-06-24 13:11:00,79.0,69.2,30.16,ESE,113,5.0,6.0,72,0.00,,,0.00,Wunderground v.1.15,2013-06-24 17:11:00,
2013-06-24 13:17:00,79.6,68.5,30.15,East,86,0.0,6.0,69,0.00,,,0.00,Wunderground v.1.15,2013-06-24 17:17:00,
2013-06-24 13:22:00,79.9,70.1,30.15,East,100,5.0,8.0,72,0.00,,,0.00,Wunderground v.1.15,2013-06-24 17:22:00,
2013-06-24 13:27:00,80.3,69.6,30.15,ESE,104,5.0,10.0,70,0.00,,,0.00,Wunderground v.1.15,2013-06-24 17:27:00,
2013-06-24 13:32:00,80.5,69.4,30.15,SE,140,0.0,7.0,69,0.00,,,0.00,Wunderground v.1.15,2013-06-24 17:32:00,
2013-06-24 13:37:00,80.3,69.2,30.15,ESE,108,0.0,10.0,69,0.00,,,0.00,Wunderground v.1.15,2013-06-24 17:37:00,
2013-06-24 13:42:00,79.9,68.4,30.14,East,99,2.0,7.0,68,0.00,,,0.00,Wunderground v.1.15,2013-06-24 17:42:00,
2013-06-24 13:47:00,80.3,69.2,30.14,East,100,0.0,7.0,69,0.00,,,0.00,Wunderground v.1.15,2013-06-24 17:47:00,
2013-06-24 13:53:00,80.5,69.0,30.14,ESE,105,0.0,12.0,68,0.00,,,0.00,Wunderground v.1.15,2013-06-24 17:53:00,
2013-06-24 13:58:00,80.5,67.2,30.13,East,98,6.0,12.0,64,0.00,,,0.00,Wunderground v.1.15,2013-06-24 17:58:00,
2013-06-24 14:04:00,80.7,68.7,30.13,ESE,106,4.0,4.0,67,0.00,,,0.00,Wunderground v.1.15,2013-06-24 18:04:00,
2013-06-24 14:09:00,81.1,70.0,30.13,East,96,0.0,7.0,69,0.00,,,0.00,Wunderground v.1.15,2013-06-24 18:09:00,
2013-06-24 14:14:00,80.5,69.4,30.13,ESE,122,3.0,10.0,69,0.00,,,0.00,Wunderground v.1.15,2013-06-24 18:14:00,
2013-06-24 14:19:00,80.3,67.9,30.13,ESE,123,6.0,10.0,66,0.00,,,0.00,Wunderground v.1.15,2013-06-24 18:19:00,
2013-06-24 14:24:00,80.7,69.6,30.13,East,95,0.0,5.0,69,0.00,,,0.00,Wunderground v.1.15,2013-06-24 18:24:00,
2013-06-24 14:29:00,80.7,67.4,30.12,East,101,0.0,5.0,64,0.00,,,0.00,Wunderground v.1.15,2013-06-24 18:29:00,
2013-06-24 14:34:00,80.7,67.8,30.12,ESE,102,0.0,10.0,65,0.00,,,0.00,Wunderground v.1.15,2013-06-24 18:34:00,
2013-06-24 14:40:00,80.5,67.2,30.12,East,100,4.0,7.0,64,0.00,,,0.00,Wunderground v.1.15,2013-06-24 18:40:00,
2013-06-24 14:45:00,80.3,67.9,30.12,East,98,0.0,9.0,66,0.00,,,0.00,Wunderground v.1.15,2013-06-24 18:45:00,
2013-06-24 14:50:00,80.3,67.5,30.12,East,95,0.0,5.0,65,0.00,,,0.00,Wunderground v.1.15,2013-06-24 18:50:00,
2013-06-24 14:55:00,80.7,67.8,30.12,East,92,3.0,8.0,65,0.00,,,0.00,Wunderground v.1.15,2013-06-24 18:55:00,
2013-06-24 15:00:00,81.1,67.3,30.11,East,93,0.0,2.0,63,0.00,,,0.00,Wunderground v.1.15,2013-06-24 19:00:00,
2013-06-24 15:05:00,81.6,69.1,30.11,ESE,102,0.0,5.0,66,0.00,,,0.00,Wunderground v.1.15,2013-06-24 19:05:00,
2013-06-24 15:10:00,81.6,67.3,30.11,East,101,0.0,4.0,62,0.00,,,0.00,Wunderground v.1.15,2013-06-24 19:10:00,
2013-06-24 15:16:00,81.6,67.3,30.10,East,98,0.0,7.0,62,0.00,,,0.00,Wunderground v.1.15,2013-06-24 19:16:00,
2013-06-24 15:23:00,81.4,67.1,30.10,East,97,0.0,6.0,62,0.00,,,0.00,Wunderground v.1.15,2013-06-24 19:23:00,
2013-06-24 15:28:00,81.6,67.3,30.10,ESE,119,0.0,6.0,62,0.00,,,0.00,Wunderground v.1.15,2013-06-24 19:28:00,
2013-06-24 15:33:00,81.8,67.0,30.10,NE,50,0.0,4.0,61,0.00,,,0.00,Wunderground v.1.15,2013-06-24 19:33:00,
2013-06-24 15:39:00,82.2,66.9,30.10,NE,50,0.0,4.0,60,0.00,,,0.00,Wunderground v.1.15,2013-06-24 19:39:00,
2013-06-24 15:44:00,82.4,68.1,30.10,NE,50,0.0,1.0,62,0.00,,,0.00,Wunderground v.1.15,2013-06-24 19:44:00,
2013-06-24 15:49:00,81.8,67.5,30.10,ESE,105,1.0,10.0,62,0.00,,,0.00,Wunderground v.1.15,2013-06-24 19:49:00,
2013-06-24 15:54:00,81.8,68.4,30.10,ESE,115,0.0,3.0,64,0.00,,,0.00,Wunderground v.1.15,2013-06-24 19:54:00,
2013-06-24 15:59:00,82.0,67.7,30.10,ESE,115,0.0,3.0,62,0.00,,,0.00,Wunderground v.1.15,2013-06-24 19:59:00,
2013-06-24 16:05:00,82.2,66.9,30.10,SSW,194,0.0,0.0,60,0.00,,,0.00,Wunderground v.1.15,2013-06-24 20:05:00,
2013-06-24 16:10:00,82.0,67.7,30.10,ESE,113,0.0,1.0,62,0.00,,,0.00,Wunderground v.1.15,2013-06-24 20:10:00,
2013-06-24 16:15:00,81.8,67.5,30.10,East,96,3.0,7.0,62,0.00,,,0.00,Wunderground v.1.15,2013-06-24 20:15:00,
2013-06-24 16:21:00,81.8,68.9,30.10,East,91,0.0,1.0,65,0.00,,,0.00,Wunderground v.1.15,2013-06-24 20:21:00,
2013-06-24 16:26:00,82.0,68.6,30.10,East,91,0.0,2.0,64,0.00,,,0.00,Wunderground v.1.15,2013-06-24 20:26:00,
2013-06-24 16:31:00,81.8,67.5,30.09,ESE,108,0.0,7.0,62,0.00,,,0.00,Wunderground v.1.15,2013-06-24 20:31:00,
2013-06-24 16:36:00,81.8,67.0,30.09,ESE,103,3.0,9.0,61,0.00,,,0.00,Wunderground v.1.15,2013-06-24 20:36:00,
2013-06-24 16:42:00,81.4,65.7,30.09,East,96,0.0,3.0,59,0.00,,,0.00,Wunderground v.1.15,2013-06-24 20:42:00,
2013-06-24 16:47:00,81.4,67.1,30.09,East,101,0.0,7.0,62,0.00,,,0.00,Wunderground v.1.15,2013-06-24 20:47:00,
2013-06-24 16:52:00,81.4,67.6,30.09,ESE,106,4.0,5.0,63,0.00,,,0.00,Wunderground v.1.15,2013-06-24 20:52:00,
2013-06-24 16:58:00,81.4,68.1,30.08,ESE,106,0.0,5.0,64,0.00,,,0.00,Wunderground v.1.15,2013-06-24 20:58:00,
2013-06-24 17:03:00,81.4,67.6,30.08,ESE,106,0.0,2.0,63,0.00,,,0.00,Wunderground v.1.15,2013-06-24 21:03:00,
2013-06-24 17:08:00,81.6,67.8,30.08,ESE,106,0.0,2.0,63,0.00,,,0.00,Wunderground v.1.15,2013-06-24 21:08:00,
2013-06-24 17:13:00,81.8,67.0,30.08,ESE,106,0.0,1.0,61,0.00,,,0.00,Wunderground v.1.15,2013-06-24 21:13:00,
2013-06-24 17:18:00,81.8,67.5,30.08,ESE,106,0.0,1.0,62,0.00,,,0.00,Wunderground v.1.15,2013-06-24 21:18:00,
2013-06-24 17:23:00,81.4,66.7,30.08,ESE,102,0.0,4.0,61,0.00,,,0.00,Wunderground v.1.15,2013-06-24 21:23:00,
2013-06-24 17:29:00,81.4,66.2,30.08,East,101,0.0,4.0,60,0.00,,,0.00,Wunderground v.1.15,2013-06-24 21:29:00,
2013-06-24 17:34:00,81.6,66.8,30.08,East,101,0.0,4.0,61,0.00,,,0.00,Wunderground v.1.15,2013-06-24 21:34:00,
2013-06-24 17:39:00,81.8,66.1,30.08,East,101,0.0,6.0,59,0.00,,,0.00,Wunderground v.1.15,2013-06-24 21:39:00,
2013-06-24 17:44:00,82.0,66.3,30.08,East,101,0.0,1.0,59,0.00,,,0.00,Wunderground v.1.15,2013-06-24 21:44:00,
2013-06-24 17:50:00,82.0,65.8,30.08,East,101,0.0,0.0,58,0.00,,,0.00,Wunderground v.1.15,2013-06-24 21:50:00,
2013-06-24 17:55:00,81.8,67.0,30.08,East,101,0.0,0.0,61,0.00,,,0.00,Wunderground v.1.15,2013-06-24 21:55:00,
2013-06-24 18:00:00,81.8,66.1,30.07,East,101,0.0,0.0,59,0.00,,,0.00,Wunderground v.1.15,2013-06-24 22:00:00,
2013-06-24 18:05:00,81.8,65.6,30.07,East,101,1.0,4.0,58,0.00,,,0.00,Wunderground v.1.15,2013-06-24 22:05:00,
2013-06-24 18:11:00,81.4,66.2,30.07,East,101,3.0,4.0,60,0.00,,,0.00,Wunderground v.1.15,2013-06-24 22:11:00,
2013-06-24 18:16:00,81.4,65.7,30.07,East,101,0.0,4.0,59,0.00,,,0.00,Wunderground v.1.15,2013-06-24 22:16:00,
2013-06-24 18:21:00,81.4,66.7,30.07,East,101,0.0,1.0,61,0.00,,,0.00,Wunderground v.1.15,2013-06-24 22:21:00,
2013-06-24 18:26:00,81.8,66.1,30.07,East,101,0.0,1.0,59,0.00,,,0.00,Wunderground v.1.15,2013-06-24 22:26:00,
2013-06-24 18:31:00,82.0,67.2,30.06,East,101,0.0,0.0,61,0.00,,,0.00,Wunderground v.1.15,2013-06-24 22:31:00,
2013-06-24 18:37:00,81.6,67.3,30.06,East,101,2.0,7.0,62,0.00,,,0.00,Wunderground v.1.15,2013-06-24 22:37:00,
2013-06-24 18:42:00,81.1,66.8,30.06,East,101,0.0,4.0,62,0.00,,,0.00,Wunderground v.1.15,2013-06-24 22:42:00,
2013-06-24 18:47:00,80.5,67.2,30.06,East,101,0.0,5.0,64,0.00,,,0.00,Wunderground v.1.15,2013-06-24 22:47:00,
2013-06-24 18:52:00,80.3,67.5,30.06,ESE,106,0.0,1.0,65,0.00,,,0.00,Wunderground v.1.15,2013-06-24 22:52:00,
2013-06-24 18:57:00,80.1,67.7,30.07,ESE,106,0.0,3.0,66,0.00,,,0.00,Wunderground v.1.15,2013-06-24 22:57:00,
2013-06-24 19:02:00,80.1,67.3,30.07,East,99,0.0,2.0,65,0.00,,,0.00,Wunderground v.1.15,2013-06-24 23:02:00,
2013-06-24 19:07:00,79.9,66.6,30.07,East,99,0.0,2.0,64,0.00,,,0.00,Wunderground v.1.15,2013-06-24 23:07:00,
2013-06-24 19:12:00,79.9,67.1,30.08,East,99,0.0,0.0,65,0.00,,,0.00,Wunderground v.1.15,2013-06-24 23:12:00,
2013-06-24 19:17:00,79.8,67.4,30.08,East,99,0.0,0.0,66,0.00,,,0.00,Wunderground v.1.15,2013-06-24 23:17:00,
2013-06-24 19:23:00,79.8,67.4,30.08,East,99,0.0,0.0,66,0.00,,,0.00,Wunderground v.1.15,2013-06-24 23:23:00,
2013-06-24 19:28:00,79.6,68.5,30.08,East,99,0.0,1.0,69,0.00,,,0.00,Wunderground v.1.15,2013-06-24 23:28:00,
2013-06-24 19:33:00,79.2,68.1,30.08,East,99,0.0,1.0,69,0.00,,,0.00,Wunderground v.1.15,2013-06-24 23:33:00,
2013-06-24 19:38:00,78.8,68.2,30.08,ESE,117,4.0,5.0,70,0.00,,,0.00,Wunderground v.1.15,2013-06-24 23:38:00,
2013-06-24 19:43:00,78.8,68.6,30.07,ESE,117,0.0,1.0,71,0.00,,,0.00,Wunderground v.1.15,2013-06-24 23:43:00,
2013-06-24 19:48:00,78.6,68.8,30.07,ESE,117,0.0,1.0,72,0.00,,,0.00,Wunderground v.1.15,2013-06-24 23:48:00,
2013-06-24 19:54:00,78.5,69.1,30.07,ESE,119,0.0,1.0,73,0.00,,,0.00,Wunderground v.1.15,2013-06-24 23:54:00,
2013-06-24 19:59:00,78.1,68.7,30.08,East,101,0.0,5.0,73,0.00,,,0.00,Wunderground v.1.15,2013-06-24 23:59:00,
2013-06-24 20:04:00,77.7,68.7,30.08,East,91,0.0,1.0,74,0.00,,,0.00,Wunderground v.1.15,2013-06-25 00:04:00,
2013-06-24 20:10:00,77.4,68.9,30.08,East,91,0.0,0.0,75,0.00,,,0.00,Wunderground v.1.15,2013-06-25 00:10:00,
2013-06-24 20:15:00,77.2,69.0,30.08,East,92,0.0,0.0,76,0.00,,,0.00,Wunderground v.1.15,2013-06-25 00:15:00,
2013-06-24 20:20:00,77.0,68.9,30.08,East,92,0.0,0.0,76,0.00,,,0.00,Wunderground v.1.15,2013-06-25 00:20:00,
2013-06-24 20:25:00,76.7,68.2,30.08,East,92,0.0,0.0,75,0.00,,,0.00,Wunderground v.1.15,2013-06-25 00:25:00,
2013-06-24 20:30:00,76.5,68.0,30.08,East,92,0.0,0.0,75,0.00,,,0.00,Wunderground v.1.15,2013-06-25 00:30:00,
2013-06-24 20:36:00,76.1,67.6,30.08,East,92,0.0,0.0,75,0.00,,,0.00,Wunderground v.1.15,2013-06-25 00:36:00,
2013-06-24 20:41:00,75.8,67.7,30.08,East,92,0.0,0.0,76,0.00,,,0.00,Wunderground v.1.15,2013-06-25 00:41:00,
2013-06-24 20:46:00,75.4,67.3,30.08,East,92,1.0,1.0,76,0.00,,,0.00,Wunderground v.1.15,2013-06-25 00:46:00,
2013-06-24 20:51:00,75.4,66.5,30.08,East,91,0.0,0.0,74,0.00,,,0.00,Wunderground v.1.15,2013-06-25 00:51:00,
2013-06-24 20:56:00,75.3,66.4,30.08,East,91,0.0,0.0,74,0.00,,,0.00,Wunderground v.1.15,2013-06-25 00:56:00,
2013-06-24 21:02:00,75.3,66.8,30.08,East,91,0.0,0.0,75,0.00,,,0.00,Wunderground v.1.15,2013-06-25 01:02:00,
2013-06-24 21:07:00,75.1,67.0,30.08,East,91,0.0,0.0,76,0.00,,,0.00,Wunderground v.1.15,2013-06-25 01:07:00,
2013-06-24 21:13:00,74.9,67.2,30.09,East,91,0.0,0.0,77,0.00,,,0.00,Wunderground v.1.15,2013-06-25 01:13:00,
2013-06-24 21:18:00,74.7,67.4,30.09,East,95,0.0,0.0,78,0.00,,,0.00,Wunderground v.1.15,2013-06-25 01:18:00,
2013-06-24 21:24:00,74.6,67.3,30.09,East,95,0.0,0.0,78,0.00,,,0.00,Wunderground v.1.15,2013-06-25 01:24:00,
2013-06-24 21:29:00,74.2,67.6,30.10,East,95,0.0,1.0,80,0.00,,,0.00,Wunderground v.1.15,2013-06-25 01:29:00,
2013-06-24 21:34:00,73.9,67.3,30.10,East,95,0.0,0.0,80,0.00,,,0.00,Wunderground v.1.15,2013-06-25 01:34:00,
2013-06-24 21:40:00,73.7,67.5,30.10,East,95,0.0,0.0,81,0.00,,,0.00,Wunderground v.1.15,2013-06-25 01:40:00,
2013-06-24 21:45:00,73.5,67.7,30.08,East,95,0.0,0.0,82,0.00,,,0.00,Wunderground v.1.15,2013-06-25 01:45:00,
2013-06-24 21:51:00,73.3,67.5,30.08,East,95,0.0,0.0,82,0.00,,,0.00,Wunderground v.1.15,2013-06-25 01:51:00,
2013-06-24 21:56:00,73.2,68.1,30.08,East,95,0.0,0.0,84,0.00,,,0.00,Wunderground v.1.15,2013-06-25 01:56:00,
2013-06-24 22:01:00,73.2,68.1,30.10,East,95,0.0,0.0,84,0.00,,,0.00,Wunderground v.1.15,2013-06-25 02:01:00,
2013-06-24 22:06:00,73.2,68.1,30.10,East,95,0.0,1.0,84,0.00,,,0.00,Wunderground v.1.15,2013-06-25 02:06:00,
2013-06-24 22:11:00,73.2,68.1,30.10,East,95,0.0,0.0,84,0.00,,,0.00,Wunderground v.1.15,2013-06-25 02:11:00,
2013-06-24 22:16:00,73.0,68.2,30.11,East,95,3.0,3.0,85,0.00,,,0.00,Wunderground v.1.15,2013-06-25 02:16:00,
2013-06-24 22:21:00,72.8,68.0,30.11,East,95,0.0,0.0,85,0.00,,,0.00,Wunderground v.1.15,2013-06-25 02:21:00,
2013-06-24 22:26:00,72.7,68.3,30.11,East,95,0.0,1.0,86,0.00,,,0.00,Wunderground v.1.15,2013-06-25 02:26:00,
2013-06-24 22:32:00,72.7,68.3,30.11,East,95,0.0,0.0,86,0.00,,,0.00,Wunderground v.1.15,2013-06-25 02:32:00,
2013-06-24 22:37:00,72.5,68.1,30.11,East,95,0.0,0.0,86,0.00,,,0.00,Wunderground v.1.15,2013-06-25 02:37:00,
2013-06-24 22:42:00,72.5,68.4,30.11,East,95,0.0,0.0,87,0.00,,,0.00,Wunderground v.1.15,2013-06-25 02:42:00,
2013-06-24 22:47:00,72.3,68.2,30.11,ESE,119,0.0,0.0,87,0.00,,,0.00,Wunderground v.1.15,2013-06-25 02:47:00,
2013-06-24 22:52:00,72.3,68.2,30.11,ESE,119,0.0,0.0,87,0.00,,,0.00,Wunderground v.1.15,2013-06-25 02:52:00,
2013-06-24 22:57:00,72.3,68.2,30.11,ESE,119,0.0,0.0,87,0.00,,,0.00,Wunderground v.1.15,2013-06-25 02:57:00,
2013-06-24 23:03:00,72.1,68.0,30.11,ESE,119,0.0,0.0,87,0.00,,,0.00,Wunderground v.1.15,2013-06-25 03:03:00,
2013-06-24 23:08:00,72.0,68.2,30.11,ESE,119,0.0,1.0,88,0.00,,,0.00,Wunderground v.1.15,2013-06-25 03:08:00,
2013-06-24 23:13:00,71.8,68.1,30.11,ESE,119,0.0,0.0,88,0.00,,,0.00,Wunderground v.1.15,2013-06-25 03:13:00,
2013-06-24 23:18:00,71.8,67.7,30.11,ESE,119,0.0,0.0,87,0.00,,,0.00,Wunderground v.1.15,2013-06-25 03:18:00,
2013-06-24 23:23:00,71.8,67.7,30.11,ESE,119,0.0,0.0,87,0.00,,,0.00,Wunderground v.1.15,2013-06-25 03:23:00,
2013-06-24 23:28:00,71.8,67.7,30.11,ESE,119,0.0,0.0,87,0.00,,,0.00,Wunderground v.1.15,2013-06-25 03:28:00,
2013-06-24 23:33:00,71.8,67.7,30.11,ESE,119,0.0,0.0,87,0.00,,,0.00,Wunderground v.1.15,2013-06-25 03:33:00,
2013-06-24 23:39:00,71.6,67.9,30.11,ESE,120,0.0,0.0,88,0.00,,,0.00,Wunderground v.1.15,2013-06-25 03:39:00,
2013-06-24 23:44:00,71.6,67.9,30.11,WSW,238,2.0,3.0,88,0.00,,,0.00,Wunderground v.1.15,2013-06-25 03:44:00,
2013-06-24 23:49:00,71.6,67.5,30.11,WSW,238,0.0,3.0,87,0.00,,,0.00,Wunderground v.1.15,2013-06-25 03:49:00,
2013-06-24 23:54:00,71.6,67.5,30.11,WSW,238,0.0,1.0,87,0.00,,,0.00,Wunderground v.1.15,2013-06-25 03:54:00,
2013-06-24 23:59:00,71.6,67.9,30.10,WSW,238,0.0,1.0,88,0.00,,,0.00,Wunderground v.1.15,2013-06-25 03:59:00,